Location: Unspecified
(41.1637°N, 24.2901°E)
Time: 21:37:07
(UTC+02:00)

ISS - Pass Details

Date: 21 September 2019
Orbit: 411 x 421 km, 51.6° (Epoch: 19 September)

Event Time Altitude Azimuth Distance (km) Brightness Sun altitude
Rises 18:58:25 0° 222° (SW) 2,332 0.6 -7.6°
Reaches altitude 10° 19:00:31 10° 218° (SW) 1,473 -0.6 -7.9°
Maximum altitude 19:03:45 54° 140° (SE) 503 -3.6 -8.6°
Drops below altitude 10° 19:07:00 10° 62° (ENE) 1,480 -1.5 -9.2°
Enters shadow 19:07:22 - 61° (ENE) 1,626 -1.2 -9.2°
